RYR4DB EGPF-EKBI

Flight info

Callsign RYR4DB
Flight time N/A
Altitude 37000
Route NORBO Y96 HAVEN DCT SURAT DCT PETIL DCT NEBSA DCT ADABO
Aircraft B738/M-SDE2E3FGHIRWXY/LB1

Departure

Time N/A
Airport Glasgow Airport (EGPF)

Arrival

Time 2026-04-28 17:48
Airport Billund Airport (EKBI)
Time Latitude Longitude Altitude Speed Heading
2026-04-28 17:05 55.53691 -2.18657 30492 ft 441 kts 78°
2026-04-28 17:05 55.54165 -2.13395 30862 ft 439 kts 78°
2026-04-28 17:05 55.54641 -2.08087 31279 ft 435 kts 78°
2026-04-28 17:06 55.55571 -1.97626 32335 ft 426 kts 77°
2026-04-28 17:06 55.56026 -1.92474 32810 ft 423 kts 77°
2026-04-28 17:06 55.56927 -1.82221 33492 ft 423 kts 77°
2026-04-28 17:07 55.57375 -1.77085 33852 ft 422 kts 77°
2026-04-28 17:07 55.57819 -1.71964 34252 ft 421 kts 77°
2026-04-28 17:07 55.58260 -1.66850 34637 ft 419 kts 77°
2026-04-28 17:07 55.58696 -1.61761 35004 ft 417 kts 77°
2026-04-28 17:08 55.59126 -1.56717 35356 ft 414 kts 77°
2026-04-28 17:08 55.59548 -1.51739 35627 ft 414 kts 77°
2026-04-28 17:08 55.59974 -1.46706 35881 ft 414 kts 77°
2026-04-28 17:08 55.60398 -1.41660 36177 ft 413 kts 78°
2026-04-28 17:09 55.60817 -1.36658 36494 ft 412 kts 78°
2026-04-28 17:09 55.61234 -1.31645 36784 ft 411 kts 78°
2026-04-28 17:09 55.61648 -1.26650 37044 ft 410 kts 78°
2026-04-28 17:09 55.62059 -1.21655 37315 ft 409 kts 78°
2026-04-28 17:10 55.62466 -1.16683 37598 ft 408 kts 78°
2026-04-28 17:10 55.62872 -1.11705 37886 ft 407 kts 78°
2026-04-28 17:10 55.63274 -1.06753 38166 ft 406 kts 78°
2026-04-28 17:10 55.63672 -1.01812 38446 ft 405 kts 78°
2026-04-28 17:11 55.64068 -0.96878 38664 ft 405 kts 78°
2026-04-28 17:11 55.64464 -0.91926 38824 ft 406 kts 78°
2026-04-28 17:11 55.64858 -0.86971 39011 ft 407 kts 78°
2026-04-28 17:11 55.65250 -0.82017 39245 ft 406 kts 78°
2026-04-28 17:12 55.65638 -0.77071 39398 ft 406 kts 78°
2026-04-28 17:12 55.66027 -0.72103 39483 ft 407 kts 78°
2026-04-28 17:12 55.66799 -0.62163 39509 ft 413 kts 78°
2026-04-28 17:13 55.67580 -0.51979 39510 ft 416 kts 79°
2026-04-28 17:13 55.68348 -0.41853 39509 ft 418 kts 79°
2026-04-28 17:14 55.69115 -0.31608 39504 ft 419 kts 79°
2026-04-28 17:14 55.69874 -0.21357 39504 ft 419 kts 79°
2026-04-28 17:15 55.70623 -0.11128 39500 ft 417 kts 79°
2026-04-28 17:15 55.71362 -0.00921 39516 ft 416 kts 79°
2026-04-28 17:16 55.72851 0.20011 39501 ft 414 kts 79°
2026-04-28 17:16 55.75609 0.60215 39511 ft 412 kts 79°
2026-04-28 17:17 55.78238 1.00566 39482 ft 412 kts 79°
2026-04-28 17:17 55.80752 1.41227 39504 ft 414 kts 79°
2026-04-28 17:18 55.83132 1.81956 39503 ft 415 kts 79°
2026-04-28 17:18 55.85384 2.22889 39496 ft 415 kts 79°
2026-04-28 17:19 55.87507 2.63980 39497 ft 418 kts 80°
2026-04-28 17:19 55.89509 3.05459 39504 ft 421 kts 80°
2026-04-28 17:20 55.91074 3.40136 39516 ft 423 kts 80°
2026-04-28 17:20 55.92304 3.89169 39488 ft 427 kts 83°
2026-04-28 17:21 55.93035 4.31693 39498 ft 430 kts 83°
2026-04-28 17:22 55.93861 4.95985 39490 ft 433 kts 83°
2026-04-28 17:22 55.93376 5.18648 39483 ft 438 kts 89°
2026-04-28 17:23 55.92602 5.34908 39480 ft 438 kts 89°
2026-04-28 17:23 55.92141 5.45737 39480 ft 438 kts 88°
2026-04-28 17:24 55.91696 5.56605 39018 ft 436 kts 88°
2026-04-28 17:24 55.91473 5.61988 38257 ft 436 kts 88°
2026-04-28 17:24 55.91249 5.67338 37746 ft 432 kts 88°
2026-04-28 17:25 55.91024 5.72690 37156 ft 430 kts 88°
2026-04-28 17:25 55.90573 5.83240 35917 ft 429 kts 88°
2026-04-28 17:25 55.90344 5.88541 35262 ft 430 kts 87°
2026-04-28 17:26 55.90111 5.93856 34594 ft 430 kts 87°
2026-04-28 17:26 55.89876 5.99172 33825 ft 431 kts 88°
2026-04-28 17:26 55.89639 6.04493 33097 ft 430 kts 88°
2026-04-28 17:26 55.89398 6.09804 32369 ft 430 kts 88°
2026-04-28 17:27 55.89156 6.15100 31619 ft 430 kts 88°
2026-04-28 17:27 55.88911 6.20420 30850 ft 431 kts 88°
2026-04-28 17:27 55.88664 6.25748 29997 ft 432 kts 88°
2026-04-28 17:27 55.88414 6.31084 29084 ft 432 kts 88°
2026-04-28 17:28 55.88160 6.36422 28192 ft 432 kts 88°
2026-04-28 17:28 55.87648 6.47076 26339 ft 434 kts 89°
2026-04-28 17:28 55.87386 6.52414 25692 ft 429 kts 89°
2026-04-28 17:29 55.87125 6.57672 25007 ft 425 kts 89°
2026-04-28 17:29 55.86864 6.62898 24350 ft 421 kts 89°
2026-04-28 17:29 55.86604 6.68074 23635 ft 417 kts 90°
2026-04-28 17:30 55.86087 6.78265 22285 ft 409 kts 89°
2026-04-28 17:30 55.85571 6.88311 20941 ft 405 kts 90°
2026-04-28 17:30 55.85312 6.93355 20302 ft 416 kts 90°
2026-04-28 17:31 55.85044 6.98548 19629 ft 422 kts 90°
2026-04-28 17:31 55.84498 7.08773 18212 ft 414 kts 91°
2026-04-28 17:32 55.83949 7.18860 16840 ft 405 kts 91°
2026-04-28 17:32 55.83677 7.23817 16173 ft 401 kts 92°
2026-04-28 17:32 55.83406 7.28742 15522 ft 397 kts 92°
2026-04-28 17:32 55.83136 7.33603 14913 ft 393 kts 92°
2026-04-28 17:33 55.82867 7.38426 14283 ft 391 kts 92°
2026-04-28 17:33 55.82598 7.43222 13581 ft 388 kts 93°
2026-04-28 17:33 55.82329 7.47967 12920 ft 385 kts 93°
2026-04-28 17:33 55.82239 7.49563 12702 ft 383 kts 93°
2026-04-28 17:34 55.81793 7.57336 11682 ft 377 kts 93°
2026-04-28 17:34 55.81529 7.61871 11555 ft 361 kts 93°
2026-04-28 17:34 55.81274 7.66225 11401 ft 347 kts 93°
2026-04-28 17:34 55.81028 7.70409 11242 ft 334 kts 93°
2026-04-28 17:35 55.80790 7.74445 11107 ft 323 kts 93°
2026-04-28 17:35 55.80559 7.78347 10974 ft 312 kts 93°
2026-04-28 17:35 55.80335 7.82123 10833 ft 303 kts 93°
2026-04-28 17:35 55.80116 7.85794 10711 ft 294 kts 93°
2026-04-28 17:36 55.79902 7.89348 10600 ft 285 kts 93°
2026-04-28 17:36 55.79694 7.92795 10481 ft 276 kts 92°
2026-04-28 17:36 55.79562 7.94985 10371 ft 273 kts 92°
2026-04-28 17:36 55.79362 7.98292 10078 ft 272 kts 92°
2026-04-28 17:37 55.79094 8.02698 9717 ft 269 kts 92°
2026-04-28 17:37 55.78893 8.05985 9453 ft 267 kts 93°
2026-04-28 17:37 55.78757 8.08191 9273 ft 265 kts 93°
2026-04-28 17:37 55.78556 8.11441 9001 ft 264 kts 93°
2026-04-28 17:38 55.78292 8.15707 8641 ft 261 kts 93°
2026-04-28 17:38 55.78157 8.17874 8462 ft 260 kts 93°
2026-04-28 17:38 55.77957 8.21055 8205 ft 258 kts 93°
2026-04-28 17:38 55.77757 8.24224 7946 ft 257 kts 93°
2026-04-28 17:39 55.77558 8.27367 7690 ft 256 kts 93°
2026-04-28 17:39 55.77290 8.30484 7432 ft 255 kts 98°
2026-04-28 17:39 55.76549 8.36598 6926 ft 253 kts 99°
2026-04-28 17:40 55.76172 8.39642 6659 ft 252 kts 99°
2026-04-28 17:40 55.75801 8.42675 6401 ft 250 kts 99°
2026-04-28 17:40 55.75433 8.45694 6155 ft 249 kts 99°
2026-04-28 17:40 55.75071 8.48689 5879 ft 248 kts 99°
2026-04-28 17:41 55.74709 8.51672 5634 ft 247 kts 99°
2026-04-28 17:41 55.74351 8.54638 5381 ft 245 kts 99°
2026-04-28 17:41 55.73994 8.57598 5120 ft 244 kts 99°
2026-04-28 17:41 55.73638 8.60540 4858 ft 244 kts 99°
2026-04-28 17:42 55.73281 8.63476 4603 ft 243 kts 99°
2026-04-28 17:42 55.72929 8.66369 4479 ft 236 kts 99°
2026-04-28 17:42 55.72588 8.69166 4371 ft 228 kts 99°
2026-04-28 17:42 55.72502 8.71906 4268 ft 217 kts 81°
2026-04-28 17:43 55.72648 8.74515 4184 ft 209 kts 80°
2026-04-28 17:43 55.72845 8.77123 3803 ft 216 kts 81°
2026-04-28 17:43 55.72985 8.79765 3611 ft 214 kts 83°
2026-04-28 17:43 55.73074 8.82403 3364 ft 214 kts 85°
2026-04-28 17:44 55.73148 8.85000 3150 ft 213 kts 84°
2026-04-28 17:44 55.73220 8.87602 3015 ft 209 kts 84°
2026-04-28 17:44 55.73293 8.90199 2833 ft 212 kts 84°
2026-04-28 17:44 55.73367 8.92792 2565 ft 209 kts 84°
2026-04-28 17:45 55.73440 8.95337 2279 ft 205 kts 83°
2026-04-28 17:45 55.73513 8.97843 1992 ft 199 kts 84°
2026-04-28 17:45 55.73582 9.00224 1708 ft 187 kts 84°
2026-04-28 17:45 55.73647 9.02457 1474 ft 176 kts 83°
2026-04-28 17:46 55.73704 9.04565 1230 ft 163 kts 84°
2026-04-28 17:46 55.73763 9.06467 1033 ft 147 kts 83°
2026-04-28 17:46 55.73816 9.08223 816 ft 141 kts 84°
2026-04-28 17:46 55.73866 9.09990 681 ft 143 kts 83°
2026-04-28 17:47 55.73925 9.11738 456 ft 142 kts 84°
2026-04-28 17:47 55.73979 9.13483 265 ft 138 kts 82°
2026-04-28 17:47 55.74038 9.15031 229 ft 102 kts 88°
2026-04-28 17:47 55.74055 9.15691 231 ft 60 kts 87°
2026-04-28 17:48 55.74074 9.16271 236 ft 29 kts 86°
2026-04-28 17:48 55.74085 9.16622 240 ft 28 kts 86°
2026-04-28 17:48 55.74130 9.16897 241 ft 22 kts 15°
2026-04-28 17:48 55.74253 9.16864 240 ft 15 kts 299°
2026-04-28 17:49 55.74250 9.16679 238 ft 15 kts 267°
2026-04-28 17:49 55.74243 9.16501 237 ft 14 kts 266°
2026-04-28 17:49 55.74237 9.16331 236 ft 14 kts 268°
2026-04-28 17:49 55.74228 9.16026 234 ft 33 kts 267°
2026-04-28 17:50 55.74216 9.15616 231 ft 33 kts 267°
2026-04-28 17:50 55.74204 9.15214 229 ft 30 kts 266°
2026-04-28 17:50 55.74229 9.15013 228 ft 16 kts 336°
2026-04-28 17:50 55.74334 9.14988 229 ft 15 kts 358°
2026-04-28 17:51 55.74435 9.14987 227 ft 14 kts 17°
2026-04-28 17:51 55.74501 9.15019 228 ft 8 kts 360°
2026-04-28 17:51 55.74530 9.15017 228 ft 3 kts 357°
2026-04-28 17:51 55.74539 9.15016 231 ft 0 kts 357°